C/2023 TD22 ( Lemmon )

Japanese version
Home page
Updated on March 25, 2025

---------------------------------------------------------------------

* Profile

Discovery Date October 12, 2023
Magnitude 21.5 mag
Discoverer Mt. Lemmon Survey

* Pictures

* Orbital Elements

Epoch 2024 Oct. 17.0 TT = JDT 2460600.5
T 2024 Sept. 16.29377 TT                                Rudenko
q   2.3568063            (2000.0)            P               Q
z  +0.0207715      Peri.   32.53511     +0.89045849     -0.45478320
 +/-0.0000028      Node     5.55627     -0.44482284     -0.86246358
e   0.9510455      Incl.  170.48971     -0.09600167     -0.22210091
From 578 observations 2023 Sept. 26-2024 Nov. 4, mean residual 0".4.

* Magnitudes Graph

        H = 14.5  G = 0.15                     [    ,-112]  (             - 2024 May  27)
        m1 = 0.8 + 5 log d + 40 log r(t + 10)  [-112,  86]  (2024 May  27 - 2024 Dec. 11)
        H = 14.5  G = 0.15                     [  86,    ]  (2024 Dec. 11 -             )

---------------------------------------------------------------------

The orbital elements are published on M.P.E.C. 2024-V117.
The magnitudes graphs are made with Comet for Windows.

---------------------------------------------------------------------

Copyright(C) Seiichi Yoshida (comet@aerith.net). All rights reserved.